Location: ??????
(38.1303°N, 24.0039°E)
Time: 10:45:16
(UTC+00:00)

GPS 2-04 Rocket1 - Pass Details

Date: 20 June 2021
Orbit: 415 x 539 km, 35.6° (Epoch: 02 August)

Event Time Altitude Azimuth Distance (km) Brightness Sun altitude
Exits shadow 00:43:13 59° 158° (SSE) 592 2.7 -20.5°
Drops below altitude 10° 00:46:49 10° 97° (E) 1,687 5.6 -20.1°
Sets 00:48:59 0° 94° (E) 2,545 6.7 -19.8°
